| time (UTC) | temp C | wind direction | speed KPH | gust KPH | rain 1hr cm | rain 24hr cm | rain mn cm | humidity % | barometer mb |
| 20260504141015 | 15 | 213 | 11.3 | 12.9 | 0.00 | 0.00 | 0.00 | 45 | 1009.8 |
| 20260504140511 | 15 | 82 | 0.0 | 1.6 | 0.00 | 0.00 | 0.00 | 51 | 1009.8 |
| 20260504130436 | 12 | 245 | 1.6 | 3.2 | 0.00 | 0.00 | 0.00 | 51 | 1010.2 |
| 20260504110317 | 7 | 243 | 3.2 | 3.2 | 0.00 | 0.00 | 0.00 | 70 | 1010.4 |
| 20260504100235 | 6 | 229 | 3.2 | 3.2 | 0.00 | 0.00 | 0.00 | 72 | 1010.2 |
| 20260504081628 | 4 | 87 | 0.0 | 0.0 | 0.00 | 0.00 | 0.00 | 86 | 1009.5 |
| 20260504081124 | 5 | 86 | 0.0 | 0.0 | 0.00 | 0.00 | 0.00 | 85 | 1009.6 |
| 20260504080621 | 5 | 170 | 0.0 | 0.0 | 0.00 | 0.00 | 0.00 | 84 | 1009.5 |
| 20260504080117 | 4 | 155 | 0.0 | 0.0 | 0.00 | 0.00 | 0.00 | 86 | 1009.3 |
| 20260504050433 | 5 | 83 | 0.0 | 0.0 | 0.00 | 0.00 | 0.00 | 74 | 1009.1 |
| 20260504045931 | 5 | 81 | 0.0 | 0.0 | 0.00 | 0.00 | 0.00 | 73 | 1009.1 |
| 20260504045426 | 5 | 90 | 0.0 | 0.0 | 0.00 | 0.00 | 0.00 | 71 | 1009.1 |
| 20260504044922 | 6 | 77 | 0.0 | 0.0 | 0.00 | 0.00 | 0.00 | 73 | 1009.1 |
| 20260504044420 | 6 | 97 | 0.0 | 0.0 | 0.00 | 0.00 | 0.00 | 72 | 1009.0 |
| 20260504043917 | 6 | 94 | 0.0 | 0.0 | 0.00 | 0.00 | 0.00 | 71 | 1009.0 |
| 20260504043414 | 6 | 88 | 0.0 | 1.6 | 0.00 | 0.00 | 0.00 | 68 | 1008.9 |
| 20260504042912 | 6 | 72 | 0.0 | 0.0 | 0.00 | 0.00 | 0.00 | 68 | 1008.9 |
| 20260504042408 | 6 | 89 | 0.0 | 0.0 | 0.00 | 0.00 | 0.00 | 66 | 1009.1 |
| 20260504041904 | 6 | 90 | 0.0 | 0.0 | 0.00 | 0.00 | 0.00 | 66 | 1009.0 |
| 20260504041401 | 6 | 104 | 1.6 | 1.6 | 0.00 | 0.00 | 0.00 | 69 | 1009.0 |
| 20260504040856 | 6 | 124 | 1.6 | 1.6 | 0.00 | 0.00 | 0.00 | 68 | 1009.0 |
| 20260504040354 | 6 | 90 | 0.0 | 0.0 | 0.00 | 0.00 | 0.00 | 70 | 1008.9 |
| 20260504035850 | 6 | 97 | 0.0 | 0.0 | 0.00 | 0.00 | 0.00 | 69 | 1008.9 |
| 20260504035348 | 6 | 105 | 0.0 | 1.6 | 0.00 | 0.00 | 0.00 | 72 | 1008.8 |
| 20260504034844 | 6 | 82 | 0.0 | 0.0 | 0.00 | 0.00 | 0.00 | 70 | 1008.9 |
| 20260504034342 | 7 | 122 | 1.6 | 1.6 | 0.00 | 0.00 | 0.00 | 68 | 1008.8 |
| 20260504033839 | 7 | 90 | 0.0 | 0.0 | 0.00 | 0.00 | 0.00 | 66 | 1008.9 |
| 20260504033337 | 7 | 83 | 0.0 | 0.0 | 0.00 | 0.00 | 0.00 | 60 | 1009.0 |
| 20260504032833 | 7 | 82 | 0.0 | 0.0 | 0.00 | 0.00 | 0.00 | 62 | 1008.9 |
| 20260504032330 | 7 | 82 | 0.0 | 0.0 | 0.00 | 0.00 | 0.00 | 66 | 1008.9 |
| 20260504031827 | 7 | 77 | 0.0 | 0.0 | 0.00 | 0.00 | 0.00 | 63 | 1009.0 |
| 20260504031319 | 7 | 104 | 0.0 | 1.6 | 0.00 | 0.00 | 0.00 | 63 | 1008.9 |
| 20260504030815 | 7 | 126 | 1.6 | 1.6 | 0.00 | 0.00 | 0.00 | 60 | 1009.0 |
| 20260504030313 | 8 | 85 | 0.0 | 0.0 | 0.00 | 0.00 | 0.00 | 60 | 1008.9 |
| 20260504025808 | 8 | 90 | 0.0 | 0.0 | 0.00 | 0.00 | 0.00 | 60 | 1009.0 |
| 20260504025306 | 8 | 105 | 0.0 | 1.6 | 0.00 | 0.00 | 0.00 | 57 | 1008.9 |
| 20260504024802 | 8 | 143 | 1.6 | 1.6 | 0.00 | 0.00 | 0.00 | 54 | 1008.7 |
| 20260504024259 | 9 | 123 | 1.6 | 1.6 | 0.00 | 0.00 | 0.00 | 52 | 1008.9 |
| 20260504023755 | 9 | 99 | 0.0 | 0.0 | 0.00 | 0.00 | 0.00 | 51 | 1008.9 |
| 20260504023252 | 9 | 99 | 0.0 | 0.0 | 0.00 | 0.00 | 0.00 | 52 | 1008.8 |
| 20260504022748 | 8 | 125 | 0.0 | 1.6 | 0.00 | 0.00 | 0.00 | 53 | 1008.9 |
| 20260504022244 | 8 | 93 | 0.0 | 0.0 | 0.00 | 0.00 | 0.00 | 52 | 1009.2 |
| 20260504021741 | 9 | 131 | 1.6 | 1.6 | 0.00 | 0.00 | 0.00 | 52 | 1009.0 |
| 20260504021239 | 10 | 88 | 0.0 | 0.0 | 0.00 | 0.00 | 0.00 | 51 | 1008.9 |
| 20260504020735 | 10 | 160 | 0.0 | 0.0 | 0.00 | 0.00 | 0.00 | 49 | 1008.8 |
| 20260504020232 | 10 | 138 | 0.0 | 0.0 | 0.00 | 0.00 | 0.00 | 48 | 1008.9 |
| 20260504015728 | 10 | 119 | 0.0 | 0.0 | 0.00 | 0.00 | 0.00 | 49 | 1008.9 |
| 20260504015225 | 10 | 117 | 0.0 | 0.0 | 0.00 | 0.00 | 0.00 | 48 | 1008.7 |
| 20260504014720 | 10 | 129 | 0.0 | 0.0 | 0.00 | 0.00 | 0.00 | 49 | 1008.9 |
| 20260504014217 | 10 | 123 | 0.0 | 0.0 | 0.00 | 0.00 | 0.00 | 49 | 1008.7 |
| 20260504013715 | 10 | 114 | 0.0 | 0.0 | 0.00 | 0.00 | 0.00 | 49 | 1009.0 |
| 20260504013213 | 10 | 30 | 0.0 | 0.0 | 0.00 | 0.00 | 0.00 | 49 | 1008.9 |
| 20260504012709 | 10 | 6 | 0.0 | 1.6 | 0.00 | 0.00 | 0.00 | 48 | 1008.9 |
| 20260504012207 | 10 | 304 | 0.0 | 1.6 | 0.00 | 0.00 | 0.00 | 47 | 1008.8 |
| 20260504011704 | 10 | 21 | 0.0 | 0.0 | 0.00 | 0.00 | 0.00 | 48 | 1008.7 |
| 20260504011200 | 10 | 357 | 0.0 | 1.6 | 0.00 | 0.00 | 0.00 | 50 | 1008.7 |
| 20260504010656 | 10 | 247 | 1.6 | 1.6 | 0.00 | 0.00 | 0.00 | 47 | 1008.5 |
| 20260504010152 | 10 | 186 | 1.6 | 1.6 | 0.00 | 0.00 | 0.00 | 45 | 1008.6 |
| 20260504005649 | 10 | 104 | 0.0 | 0.0 | 0.00 | 0.00 | 0.00 | 45 | 1008.4 |
| 20260504005145 | 10 | 112 | 0.0 | 0.0 | 0.00 | 0.00 | 0.00 | 45 | 1008.2 |
| 20260504004644 | 10 | 96 | 0.0 | 0.0 | 0.00 | 0.00 | 0.00 | 45 | 1008.4 |
| 20260504004140 | 10 | 89 | 0.0 | 0.0 | 0.00 | 0.00 | 0.00 | 46 | 1008.3 |
| 20260504003637 | 10 | 122 | 1.6 | 1.6 | 0.00 | 0.00 | 0.00 | 46 | 1008.1 |
| 20260504003133 | 10 | 76 | 0.0 | 0.0 | 0.00 | 0.00 | 0.00 | 44 | 1008.0 |
| 20260504002630 | 10 | 74 | 0.0 | 0.0 | 0.00 | 0.00 | 0.00 | 45 | 1008.0 |
| 20260504002128 | 11 | 74 | 0.0 | 0.0 | 0.00 | 0.00 | 0.00 | 44 | 1007.7 |
| 20260504001626 | 11 | 65 | 0.0 | 0.0 | 0.00 | 0.00 | 0.00 | 44 | 1007.6 |
| 20260504001121 | 11 | 73 | 0.0 | 0.0 | 0.00 | 0.00 | 0.00 | 44 | 1007.8 |
| 20260504000619 | 11 | 48 | 0.0 | 0.0 | 0.00 | 0.00 | 0.00 | 44 | 1007.7 |
| 20260504000116 | 11 | 131 | 0.0 | 1.6 | 0.00 | 0.00 | 0.00 | 44 | 1007.6 |
| 20260503235614 | 12 | 316 | 1.6 | 1.6 | 0.00 | 0.00 | 0.00 | 42 | 1007.6 |
| 20260503235111 | 12 | 343 | 1.6 | 1.6 | 0.00 | 0.00 | 0.00 | 43 | 1007.5 |
| 20260503234609 | 12 | 14 | 1.6 | 1.6 | 0.00 | 0.00 | 0.00 | 43 | 1007.5 |
| 20260503234106 | 12 | 25 | 0.0 | 1.6 | 0.00 | 0.00 | 0.00 | 42 | 1007.4 |
| 20260503233603 | 12 | 348 | 3.2 | 3.2 | 0.00 | 0.00 | 0.00 | 41 | 1007.4 |
| 20260503233059 | 12 | 330 | 4.8 | 4.8 | 0.00 | 0.00 | 0.00 | 41 | 1007.4 |
| 20260503232556 | 12 | 5 | 3.2 | 4.8 | 0.00 | 0.00 | 0.00 | 41 | 1007.1 |
| 20260503232053 | 12 | 309 | 1.6 | 1.6 | 0.00 | 0.00 | 0.00 | 40 | 1007.2 |
| 20260503231551 | 12 | 257 | 4.8 | 4.8 | 0.00 | 0.00 | 0.00 | 37 | 1007.2 |
| 20260503231047 | 12 | 28 | 1.6 | 3.2 | 0.00 | 0.00 | 0.00 | 40 | 1007.2 |
| 20260503230544 | 12 | 349 | 1.6 | 1.6 | 0.00 | 0.00 | 0.00 | 37 | 1007.0 |
| 20260503230042 | 12 | 356 | 3.2 | 3.2 | 0.00 | 0.00 | 0.00 | 41 | 1007.1 |
| 20260503225538 | 13 | 336 | 1.6 | 3.2 | 0.00 | 0.00 | 0.00 | 38 | 1006.9 |
| 20260503225033 | 13 | 328 | 3.2 | 4.8 | 0.00 | 0.00 | 0.00 | 35 | 1007.1 |
| 20260503224531 | 13 | 305 | 4.8 | 8.0 | 0.00 | 0.00 | 0.00 | 36 | 1006.7 |
| 20260503224029 | 13 | 287 | 3.2 | 3.2 | 0.00 | 0.00 | 0.00 | 35 | 1006.8 |
| 20260503223527 | 13 | 358 | 4.8 | 4.8 | 0.00 | 0.00 | 0.00 | 36 | 1006.9 |
| 20260503223022 | 13 | 342 | 3.2 | 3.2 | 0.00 | 0.00 | 0.00 | 35 | 1006.4 |
| 20260503222520 | 13 | 263 | 3.2 | 3.2 | 0.00 | 0.00 | 0.00 | 35 | 1006.6 |
| 20260503222018 | 13 | 356 | 3.2 | 3.2 | 0.00 | 0.00 | 0.00 | 34 | 1006.5 |
| 20260503221516 | 13 | 310 | 3.2 | 3.2 | 0.00 | 0.00 | 0.00 | 35 | 1006.6 |
| 20260503221013 | 13 | 244 | 4.8 | 8.0 | 0.00 | 0.00 | 0.00 | 35 | 1006.8 |
| 20260503220509 | 13 | 288 | 3.2 | 3.2 | 0.00 | 0.00 | 0.00 | 35 | 1006.7 |
| 20260503220006 | 13 | 317 | 4.8 | 4.8 | 0.00 | 0.00 | 0.00 | 35 | 1006.7 |
| 20260503215503 | 13 | 318 | 3.2 | 3.2 | 0.00 | 0.00 | 0.00 | 34 | 1006.8 |
| 20260503215000 | 13 | 301 | 4.8 | 4.8 | 0.00 | 0.00 | 0.00 | 35 | 1006.8 |
| 20260503214458 | 13 | 251 | 4.8 | 4.8 | 0.00 | 0.00 | 0.00 | 34 | 1006.7 |
| 20260503213955 | 13 | 69 | 4.8 | 8.0 | 0.00 | 0.00 | 0.00 | 35 | 1006.5 |
| 20260503213453 | 13 | 286 | 6.4 | 9.7 | 0.00 | 0.00 | 0.00 | 34 | 1006.7 |
| 20260503212949 | 13 | 13 | 6.4 | 8.0 | 0.00 | 0.00 | 0.00 | 35 | 1006.6 |
| 20260503212447 | 13 | 3 | 4.8 | 8.0 | 0.00 | 0.00 | 0.00 | 36 | 1006.7 |
| 20260503211944 | 13 | 327 | 4.8 | 4.8 | 0.00 | 0.00 | 0.00 | 37 | 1006.5 |
| 20260503211441 | 13 | 249 | 3.2 | 3.2 | 0.00 | 0.00 | 0.00 | 36 | 1006.6 |
| 20260503210937 | 13 | 349 | 3.2 | 3.2 | 0.00 | 0.00 | 0.00 | 36 | 1006.7 |
| 20260503210433 | 13 | 275 | 6.4 | 8.0 | 0.00 | 0.00 | 0.00 | 37 | 1006.7 |
| 20260503205928 | 13 | 33 | 1.6 | 1.6 | 0.00 | 0.00 | 0.00 | 37 | 1006.8 |
| 20260503205426 | 13 | 261 | 4.8 | 4.8 | 0.00 | 0.00 | 0.00 | 39 | 1006.7 |
| 20260503204922 | 13 | 296 | 3.2 | 3.2 | 0.00 | 0.00 | 0.00 | 37 | 1006.5 |
| 20260503204419 | 13 | 358 | 3.2 | 4.8 | 0.00 | 0.00 | 0.00 | 36 | 1006.6 |
| 20260503203916 | 13 | 306 | 8.0 | 9.7 | 0.00 | 0.00 | 0.00 | 35 | 1006.8 |
| 20260503203414 | 13 | 37 | 4.8 | 8.0 | 0.00 | 0.00 | 0.00 | 37 | 1006.7 |
| 20260503202910 | 13 | 134 | 4.8 | 8.0 | 0.00 | 0.00 | 0.00 | 37 | 1006.6 |
| 20260503202409 | 13 | 284 | 4.8 | 4.8 | 0.00 | 0.00 | 0.00 | 37 | 1006.6 |
| 20260503201907 | 13 | 87 | 3.2 | 4.8 | 0.00 | 0.00 | 0.00 | 35 | 1006.5 |
| 20260503201403 | 13 | 332 | 6.4 | 9.7 | 0.00 | 0.00 | 0.00 | 38 | 1006.5 |
| 20260503200901 | 13 | 243 | 4.8 | 8.0 | 0.00 | 0.00 | 0.00 | 35 | 1006.9 |
| 20260503200356 | 13 | 343 | 4.8 | 8.0 | 0.00 | 0.00 | 0.00 | 37 | 1006.8 |
| 20260503195854 | 13 | 296 | 6.4 | 8.0 | 0.00 | 0.00 | 0.00 | 40 | 1006.7 |
| 20260503195350 | 12 | 343 | 4.8 | 4.8 | 0.00 | 0.00 | 0.00 | 38 | 1007.0 |
| 20260503194848 | 13 | 290 | 8.0 | 12.9 | 0.00 | 0.00 | 0.00 | 39 | 1006.9 |
| 20260503194343 | 13 | 8 | 6.4 | 8.0 | 0.00 | 0.00 | 0.00 | 39 | 1006.8 |
| 20260503193840 | 13 | 350 | 4.8 | 8.0 | 0.00 | 0.00 | 0.00 | 37 | 1007.2 |
| 20260503193336 | 13 | 48 | 6.4 | 8.0 | 0.00 | 0.00 | 0.00 | 39 | 1007.1 |
| 20260503192832 | 13 | 286 | 6.4 | 9.7 | 0.00 | 0.00 | 0.00 | 38 | 1007.0 |
| 20260503192327 | 13 | 349 | 4.8 | 4.8 | 0.00 | 0.00 | 0.00 | 38 | 1007.2 |
| 20260503191824 | 13 | 329 | 6.4 | 8.0 | 0.00 | 0.00 | 0.00 | 45 | 1007.4 |
| 20260503191321 | 13 | 330 | 4.8 | 4.8 | 0.00 | 0.00 | 0.00 | 38 | 1007.2 |
| 20260503190818 | 13 | 325 | 4.8 | 4.8 | 0.00 | 0.00 | 0.00 | 39 | 1007.1 |
| 20260503190315 | 13 | 282 | 4.8 | 8.0 | 0.00 | 0.00 | 0.00 | 44 | 1007.1 |
| 20260503185812 | 13 | 339 | 3.2 | 4.8 | 0.00 | 0.00 | 0.00 | 43 | 1007.0 |
| 20260503185307 | 12 | 57 | 6.4 | 8.0 | 0.00 | 0.00 | 0.00 | 42 | 1007.3 |
| 20260503184802 | 12 | 339 | 8.0 | 11.3 | 0.00 | 0.00 | 0.00 | 44 | 1007.3 |
| 20260503184259 | 12 | 327 | 8.0 | 11.3 | 0.00 | 0.00 | 0.00 | 41 | 1007.4 |
| 20260503183754 | 12 | 318 | 6.4 | 8.0 | 0.00 | 0.00 | 0.00 | 44 | 1007.3 |
| 20260503183252 | 12 | 347 | 6.4 | 8.0 | 0.00 | 0.00 | 0.00 | 46 | 1007.4 |
| 20260503182749 | 11 | 357 | 8.0 | 9.7 | 0.00 | 0.00 | 0.00 | 46 | 1007.4 |
| 20260503182248 | 12 | 249 | 8.0 | 11.3 | 0.00 | 0.00 | 0.00 | 47 | 1007.3 |
| 20260503181745 | 12 | 297 | 6.4 | 8.0 | 0.00 | 0.00 | 0.00 | 46 | 1007.5 |
| 20260503181242 | 12 | 277 | 4.8 | 4.8 | 0.00 | 0.00 | 0.00 | 45 | 1007.6 |
| 20260503180738 | 11 | 99 | 6.4 | 8.0 | 0.00 | 0.00 | 0.00 | 45 | 1007.6 |
| 20260503180236 | 11 | 250 | 8.0 | 11.3 | 0.00 | 0.00 | 0.00 | 43 | 1007.6 |
| 20260503175732 | 11 | 293 | 3.2 | 4.8 | 0.00 | 0.00 | 0.00 | 48 | 1007.6 |
| 20260503175231 | 11 | 301 | 8.0 | 9.7 | 0.00 | 0.00 | 0.00 | 48 | 1007.7 |
| 20260503174726 | 10 | 17 | 6.4 | 9.7 | 0.00 | 0.00 | 0.00 | 49 | 1007.6 |
| 20260503174224 | 10 | 338 | 4.8 | 4.8 | 0.00 | 0.00 | 0.00 | 48 | 1007.6 |
| 20260503173719 | 11 | 335 | 3.2 | 3.2 | 0.00 | 0.00 | 0.00 | 47 | 1007.6 |
| 20260503173215 | 11 | 356 | 6.4 | 9.7 | 0.00 | 0.00 | 0.00 | 46 | 1007.7 |
| 20260503172712 | 11 | 265 | 4.8 | 4.8 | 0.00 | 0.00 | 0.00 | 44 | 1007.9 |
| 20260503172209 | 10 | 309 | 4.8 | 4.8 | 0.00 | 0.00 | 0.00 | 47 | 1007.8 |
| 20260503171706 | 10 | 255 | 4.8 | 4.8 | 0.00 | 0.00 | 0.00 | 45 | 1007.9 |
| 20260503171203 | 10 | 354 | 4.8 | 4.8 | 0.00 | 0.00 | 0.00 | 49 | 1007.7 |
| 20260503170700 | 10 | 333 | 4.8 | 4.8 | 0.00 | 0.00 | 0.00 | 46 | 1007.6 |
| 20260503170157 | 11 | 243 | 3.2 | 4.8 | 0.00 | 0.00 | 0.00 | 45 | 1007.5 |
| 20260503160118 | 10 | 27 | 6.4 | 9.7 | 0.00 | 0.00 | 0.00 | 46 | 1007.7 |
| 20260503150548 | 8 | 355 | 4.8 | 9.7 | 0.00 | 0.00 | 0.00 | 55 | 1008.1 |